Home > Weather > Chania > Past weeks

Flag for Greece Past Weather in Chania, Crete, Greece — Yesterday and Last 2 Weeks

Now
86 °F

Sunny.


Feels Like: 91 °F
Forecast: 72 / 89 °F
Wind: 6 mph from Northwest

Location: Souda Airport

Current Time: Jul 28, 2016 at 7:33:54 PM

Latest Report: Jul 28, 2016 at 6:50 PM


Visibility: 10 mi

Pressure: 29.86 "Hg

Humidity: 59%

Dew Point: 70 °F

Location of ChaniaLocation

Past Weather in Chania — Graph

°F

Chania Temperature Yesterday

Maximum temperature yesterday: 88 °F (at 12:50 PM)
Minimum temperature yesterday: 73 °F (at 2:50 AM)
Average temperature yesterday: 81 °F

High & Low Weather Summary for the Past Weeks

 TemperatureHumidityPressure
High99 °F (Jul 15, 4:50 PM)94% (Jul 24, 5:20 AM)29.98 "Hg (Jul 24, 5:20 AM)
Low70 °F (Jul 14, 1:50 AM)33% (Jul 23, 11:20 AM)29.74 "Hg (Jul 15, 1:50 AM)
Average80 °F63%29.85 "Hg
* Reported Jul 13 7:50 PM — Jul 28 6:20 PM, Chania, Weather by CustomWeather, © 2016

Note: Actual official high and low records may vary slightly from our data, if they occured in-between our weather recording intervals... More about our weather records

Advertising

Chania Weather History for the Previous 24 Hours

Scroll right to see more
 ConditionsComfort  
Time TempWeatherWind HumidityBarometerVisibility
6:20 PM
Thu, Jul 28
88 °FSunny.7 mph52%29.89 "Hg10 mi
5:50 PM88 °FSunny.9 mph55%29.86 "Hg10 mi
5:20 PM88 °FSunny.9 mph59%29.86 "Hg10 mi
4:50 PM90 °FSunny.12 mph52%29.86 "Hg10 mi
4:20 PM90 °FSunny.8 mph52%29.89 "Hg10 mi
3:50 PM88 °FSunny.12 mph52%29.89 "Hg10 mi
3:20 PM90 °FSunny.14 mph52%29.89 "Hg10 mi
2:50 PM88 °FSunny.16 mph49%29.89 "Hg10 mi
2:20 PM90 °FPassing clouds.15 mph52%29.89 "HgN/A
1:50 PM88 °FPassing clouds.16 mph46%29.89 "HgN/A
1:20 PM90 °FPassing clouds.15 mph52%29.89 "HgN/A
12:50 PM90 °FPassing clouds.14 mph49%29.89 "HgN/A
12:20 PM88 °FPassing clouds.14 mph52%29.89 "HgN/A
11:50 AM88 °FPassing clouds.12 mph52%29.89 "HgN/A
11:20 AM88 °FPassing clouds.12 mph49%29.89 "HgN/A
10:50 AM86 °FPassing clouds.9 mph43%29.89 "HgN/A
10:20 AM86 °FPassing clouds.9 mph46%29.89 "HgN/A
9:50 AM86 °FPassing clouds.6 mph52%29.89 "HgN/A
9:20 AM84 °FPassing clouds.6 mph55%29.89 "HgN/A
8:50 AM82 °FPassing clouds.6 mph55%29.89 "HgN/A
8:20 AM81 °FSunny.5 mph58%29.89 "Hg10 mi
7:50 AM79 °FSunny.5 mph61%29.89 "Hg10 mi
7:20 AM75 °FClear.5 mph65%29.86 "Hg10 mi
6:50 AM75 °FClear.No wind57%29.86 "Hg10 mi
6:20 AM75 °FClear.No wind57%29.86 "Hg10 mi
5:50 AM75 °FClear.No wind57%29.86 "Hg10 mi
5:20 AM73 °FClear.No wind65%29.86 "Hg10 mi
4:50 AM73 °FClear.No wind74%29.86 "Hg10 mi
4:20 AM73 °FClear.No wind83%29.86 "Hg10 mi
3:50 AM73 °FClear.No wind83%29.86 "Hg10 mi
3:20 AM73 °FClear.No wind83%29.86 "Hg10 mi
2:50 AM73 °FClear.No wind83%29.86 "Hg10 mi
2:20 AM75 °FClear.No wind83%29.86 "Hg10 mi
1:50 AM75 °FClear.No wind83%29.86 "Hg10 mi
1:20 AM75 °FClear.No wind83%29.89 "Hg10 mi
12:50 AM75 °FClear.No wind83%29.89 "Hg10 mi
12:20 AM73 °FClear.6 mph89%29.89 "Hg10 mi
11:50 PM
Wed, Jul 27
75 °FClear.6 mph78%29.89 "Hg10 mi
11:20 PM75 °FClear.7 mph78%29.89 "Hg10 mi
10:50 PM77 °FClear.7 mph69%29.89 "Hg10 mi
10:20 PM77 °FClear.8 mph61%29.89 "Hg10 mi
9:50 PM79 °FClear.6 mph61%29.86 "Hg10 mi
9:20 PM81 °FSunny.No wind66%29.86 "Hg10 mi
8:50 PM82 °FSunny.No wind62%29.86 "Hg10 mi
8:20 PM82 °FSunny.5 mph58%29.86 "Hg10 mi
7:50 PM84 °FSunny.6 mph48%29.86 "Hg10 mi
7:20 PM84 °FSunny.7 mph48%29.86 "Hg10 mi
Weather by CustomWeather, © 2016

See weather overviewHow to use our weather pages